Regional Weather Roundup
Issued by NWS

Home | Current Version | Previous Version | Text Only | Print | Product List | Glossary On
Versions: 1 2 3 4 5 6 7 8 9 10 11 12 13 14 15 16 17 18 19 20 21 22 23 24 25 26 27 28 29 30 31 32 33 34 35 36 37 38 39 40 41 42 43 44 45 46 47 48 49 50
000
ASUS43 KDMX 281108
RWRIA

WEATHER ROUNDUP FOR IOWA
NATIONAL WEATHER SERVICE DES MOINES IA
600 AM CDT TUE JUN 28 2016

NOTE: "FAIR" INDICATES FEW OR NO CLOUDS BELOW 12,000 FEET WITH NO
SIGNIFICANT WEATHER AND/OR OBSTRUCTIONS TO VISIBILITY.

* - THESE STATIONS ARE NOT NWS STATIONS...THUS NOT UNDER NWS
QUALITY CONTROL.  THEY ALSO DO NOT REPORT WEATHER SUCH
AS PRECIPITATION OR FOG.

IAZ001>003-012>014-020>022-031>034-043>046-281200-
   NORTHWEST IOWA

CITY           SKY/WX    TMP DP  RH WIND       PRES   REMARKS
CARROLL *      CLEAR     57  55  94 NW3       30.22S
CHEROKEE *     CLEAR     56  56 100 CALM      30.24R
DENISON *      CLEAR     59  57  94 CALM      30.21S
LE MARS *      CLEAR     59  57  94 CALM      30.24S
ORANGE CITY *  CLEAR     61  55  82 E3        30.24S
SHELDON *      CLEAR     55  54  94 CALM      30.23S
SIOUX CITY     CLEAR     63  56  78 CALM      30.23R
SPENCER        CLEAR     56  53  90 NW3       30.24R
STORM LAKE *   CLEAR     59  55  88 NE7       30.24S
$$

IAZ055>058-069>071-079>083-090>094-281200-
   SOUTHWEST IOWA

CITY           SKY/WX    TMP DP  RH WIND       PRES   REMARKS
ATLANTIC *     MOCLDY    61  59  94 N6        30.22R
AUDUBON *      CLEAR     59  55  88 CALM      30.24R
CLARINDA *       N/A     66  64  94 MISG      30.23R
COUNCIL BLFS * MOCLDY    64  59  82 NE9       30.21S
CRESTON *      PTCLDY    64  59  82 NE9       30.22S
HARLAN  *      CLEAR     61  57  88 CALM      30.26R
LAMONI         CLEAR     63  59  87 NE8       30.19S
RED OAK *      MOCLDY    64  61  88 N6        30.21R
SHENANDOAH *   MOCLDY    66  66 100 NE5       30.21R
$$

IAZ047>049-059>061-072>074-084-281200-
   CENTRAL IOWA

CITY           SKY/WX    TMP DP  RH WIND       PRES   REMARKS
AMES           CLEAR     59  57  93 NW5       30.21R
ANKENY *         N/A    N/A N/A N/A MISG        N/A
BOONE *        CLEAR     59  55  88 N5        30.21R
DES MOINES     PTCLDY    66  59  78 N6        30.20R
GRINNELL*      CLEAR     59  56  92 W5        30.21R
KNOXVILLE *    CLEAR     61  57  88 NW5       30.19R
MARSHALLTOWN   CLEAR     58  57  97 W3        30.20R
NEWTON *       CLEAR     61  61 100 NW5       30.20R
PELLA *        CLEAR     60  58  94 CALM      30.20S
PERRY *          N/A     59  58  96 N5        30.21S
$$

IAZ004>006-015-016-023>025-035-036-281200-
   NORTH CENTRAL IOWA

CITY           SKY/WX    TMP DP  RH WIND       PRES   REMARKS
ALGONA *       CLEAR     57  54  88 N5        30.24R
CLARION *        N/A    N/A N/A N/A MISG        N/A
ESTHERVILLE    CLEAR     54  53  97 NW5       30.23R
FORT DODGE *   CLEAR     57  52  82 N5        30.23S
MASON CITY     CLEAR     55  53  93 N3        30.24R
FOREST CITY *    N/A     52  52 100 CALM      30.23R
WEBSTER CITY * CLEAR     57  55  94 N5        30.20S
IOWA FALLS *     N/A     57  55  92 CALM      30.23R
$$

IAZ007>011-017>019-026>030-037>042-050>054-066-281200-
   NORTHEAST IOWA

CITY           SKY/WX    TMP DP  RH WIND       PRES   REMARKS
CEDAR RAPIDS   CLEAR     60  60 100 N6        30.17R
CHARLES CITY * CLEAR     57  57 100 NE3       30.22R
CLINTON *      CLEAR     59  57  93 N7        30.17R
DECORAH *      CLEAR     57  54  88 CALM      30.21R
DUBUQUE        CLEAR     59  55  87 MISG      30.19R
MONTICELLO *   CLEAR     57  57 100 CALM      30.18R
OELWEIN *      CLEAR     57  55  94 NE5       30.21R
WATERLOO       CLEAR     58  55  90 N7        30.19R
$$

IAZ064-065-067-068-078-281200-
   EAST CENTRAL IOWA

CITY           SKY/WX    TMP DP  RH WIND       PRES   REMARKS
DAVENPORT      CLEAR     59  56  89 N7        30.17R
IOWA CITY      CLEAR     64  58  80 N7        30.18R
MT. PLEASANT * CLEAR     64  63  99 N5        30.17R
MUSCATINE *    CLEAR     63  57  82 N5        30.16R
QUAD CITIES    CLEAR     66  57  72 N7        30.15R
$$

IAZ062-063-075>077-085>089-095>099-281200-
   SOUTHEAST IOWA

CITY           SKY/WX    TMP DP  RH WIND       PRES   REMARKS
BURLINGTON     CLEAR     65  61  87 N9        30.15R
FAIRFIELD *    CLEAR     59  57  94 N3        30.17R
FORT MADISON * CLEAR     63  61  94 N3        30.16R
KEOKUK *       CLEAR     66  63  88 N5        30.14R
OSKALOOSA *      N/A     59  57  94 N3        30.19R
OTTUMWA        CLEAR     62  58  86 N6        30.18R
WASHINGTON *   CLEAR     61  57  88 N6        30.18R
$$

ABBREVIATIONS USED IN REMARKS
   TC - TEMPERATURES IN CELSIUS
  WCI - WIND CHILL INDEX
   HX - HEAT INDEX
  VSB - VISIBILITY
$$





USA.gov is the U.S. government's official web portal to all federal, state and local government web resources and services.